FW3655 Weather Reports


Display with metric or nautical units.
time (UTC)temp
F
wind
direction
speed
MPH
gust
MPH
rain 1hr
in
rain 24hr
in
rain mn
in
humidity
%
barometer
mb
20200814192115 52 157 0.0 0.0 0.00 0.25 0.01 96 1008.4
20200814191625 52 157 0.0 0.0 0.00 0.25 0.01 96 1008.5
20200814191113 52 157 0.0 0.0 0.00 0.25 0.01 95 1008.4
20200814190619 52 158 0.0 0.0 0.00 0.25 0.01 96 1008.3
20200814190112 52 158 0.0 0.0 0.00 0.25 0.01 96 1008.3
20200814185613 52 158 0.0 0.0 0.00 0.25 0.01 95 1008.1
20200814185120 52 158 0.0 0.0 0.00 0.25 0.01 95 1008.1
20200814184615 52 158 0.0 0.0 0.00 0.25 0.01 95 1008.1
20200814184110 52 161 0.0 0.0 0.00 0.25 0.01 95 1008.0
20200814183613 52 161 0.0 0.0 0.00 0.25 0.01 95 1007.9
20200814183123 51 161 0.0 0.0 0.00 0.25 0.01 95 1007.9
20200814182616 51 161 0.0 0.0 0.00 0.25 0.01 95 1007.8
20200814182110 51 161 0.0 0.0 0.00 0.25 0.01 95 1007.8
20200814181624 51 160 0.0 0.0 0.00 0.25 0.01 95 1007.7
20200814181107 51 160 0.0 0.0 0.00 0.25 0.01 95 1007.6
20200814180614 51 160 0.0 0.0 0.00 0.25 0.01 95 1007.4
20200814180116 51 160 0.0 0.0 0.00 0.25 0.01 95 1007.3
20200814175607 51 160 0.0 0.0 0.00 0.25 0.01 95 1007.3
20200814175109 50 161 0.0 0.0 0.00 0.25 0.01 95 1007.3
20200814174616 51 158 0.0 0.0 0.01 0.25 0.01 95 1007.2
20200814174115 51 158 0.0 0.0 0.01 0.25 0.01 95 1007.1
20200814173617 51 158 0.0 0.0 0.01 0.25 0.01 95 1007.1
20200814173117 52 158 0.0 0.0 0.01 0.25 0.01 95 1007.3
20200814172626 52 158 0.0 0.0 0.01 0.25 0.01 95 1007.5
20200814172114 51 178 0.0 0.0 0.01 0.25 0.01 95 1007.5
20200814171612 51 178 0.0 0.0 0.01 0.25 0.01 95 1007.8
20200814171113 51 178 0.0 0.0 0.01 0.25 0.01 95 1007.9
20200814170621 51 178 0.0 0.0 0.01 0.25 0.01 95 1007.9
20200814170116 51 178 0.0 0.0 0.01 0.25 0.01 95 1007.8
20200814165612 52 178 0.0 0.0 0.01 0.25 0.01 95 1007.6
20200814165116 52 178 0.0 0.0 0.01 0.25 0.01 95 1007.6
20200814164602 52 178 0.0 0.0 0.00 0.24 0.00 95 1007.6
20200814164101 52 178 0.0 0.0 0.00 0.24 0.00 95 1007.7
20200814163611 52 178 0.0 0.0 0.00 0.24 0.00 95 1007.9
20200814163103 53 178 0.0 0.0 0.00 0.24 0.00 95 1007.9
20200814162609 52 178 0.0 0.0 0.00 0.24 0.00 95 1008.0
20200814162100 52 178 0.0 0.0 0.00 0.24 0.00 95 1008.1
20200814161557 52 178 0.0 0.0 0.00 0.24 0.00 94 1008.3
20200814161057 53 178 0.0 0.0 0.00 0.24 0.00 95 1008.3
20200814160557 53 178 0.0 0.0 0.00 0.24 0.00 95 1008.3
20200814160102 53 178 0.0 0.0 0.00 0.24 0.00 95 1008.2
20200814155557 53 178 0.0 0.0 0.00 0.24 0.00 95 1008.4
20200814155056 53 178 0.0 0.0 0.00 0.24 0.00 95 1008.5
20200814154607 53 178 0.0 0.0 0.00 0.24 0.00 95 1008.4
20200814154050 54 178 0.0 0.0 0.00 0.24 0.00 95 1008.5
20200814153555 53 178 0.0 0.0 0.00 0.24 0.00 94 1008.5
20200814153057 53 178 0.0 0.0 0.00 0.24 0.00 94 1008.9
20200814152548 54 178 0.0 0.0 0.00 0.24 0.00 95 1008.9
20200814152053 54 178 0.0 0.0 0.00 0.24 0.00 95 1008.9
20200814151548 54 178 0.0 0.0 0.00 0.24 0.00 95 1008.8
20200814151047 54 178 0.0 0.0 0.00 0.24 0.00 95 1008.6
20200814150551 54 178 0.0 0.0 0.00 0.24 0.00 95 1008.9
20200814150053 54 178 0.0 0.0 0.00 0.24 0.00 95 1008.8
20200814145551 54 322 0.0 0.0 0.00 0.24 0.00 95 1008.7
20200814145039 54 325 0.0 0.0 0.00 0.24 0.00 95 1008.9
20200814144538 54 325 0.0 0.0 0.00 0.24 0.00 94 1008.9
20200814144048 54 324 0.0 0.0 0.00 0.24 0.00 94 1009.1
20200814143539 54 327 0.0 0.0 0.00 0.24 0.00 94 1009.5
20200814143036 54 327 0.0 0.0 0.00 0.24 0.00 94 1009.6
20200814142538 54 327 0.0 0.0 0.00 0.24 0.00 94 1009.4
20200814142035 54 327 0.0 0.0 0.00 0.24 0.00 94 1009.1
20200814141541 54 327 0.0 0.0 0.00 0.24 0.00 94 1009.2
20200814141039 54 327 0.0 0.0 0.00 0.24 0.00 94 1009.3
20200814140539 54 327 0.0 0.0 0.00 0.24 0.00 94 1009.6
20200814140044 54 327 0.0 0.0 0.00 0.24 0.00 94 1009.6
20200814135535 54 327 0.0 0.0 0.00 0.24 0.24 94 1010.0
20200814135039 54 327 0.0 0.0 0.00 0.24 0.24 94 1009.8
20200814134535 54 327 0.0 0.0 0.00 0.24 0.24 94 1009.6
20200814134035 54 327 0.0 0.0 0.00 0.24 0.24 94 1010.1
20200814133536 54 327 0.0 0.0 0.00 0.24 0.24 94 1010.4
20200814133015 54 327 0.0 0.0 0.00 0.24 0.24 94 1010.4
20200814132523 54 327 0.0 0.0 0.00 0.24 0.24 93 1010.6
20200814132012 55 327 0.0 0.0 0.00 0.24 0.24 93 1010.6
20200814131517 55 327 0.0 0.0 0.00 0.24 0.24 94 1010.8
20200814131014 55 327 0.0 0.0 0.00 0.24 0.24 93 1010.5
20200814130510 55 327 0.0 0.0 0.00 0.24 0.24 93 1010.7
20200814130018 55 327 0.0 0.0 0.00 0.24 0.24 93 1010.7
20200814125508 55 327 0.0 0.0 0.00 0.24 0.24 93 1011.0
20200814125008 55 328 0.0 0.0 0.00 0.24 0.24 93 1011.0
20200814124510 55 328 0.0 0.0 0.00 0.24 0.24 93 1011.0
20200814124010 55 328 0.0 0.0 0.00 0.24 0.24 93 1011.2
20200814123507 56 328 0.0 0.0 0.00 0.24 0.24 93 1011.6
20200814123006 56 328 0.0 0.0 0.00 0.24 0.24 93 1011.8
20200814122508 56 328 0.0 0.0 0.00 0.24 0.24 93 1012.1
20200814122009 56 328 0.0 0.0 0.00 0.24 0.24 93 1012.1
20200814121447 56 328 0.0 0.0 0.00 0.24 0.24 93 1012.0
20200814120944 56 328 0.0 0.0 0.00 0.24 0.24 93 1012.2
20200814120446 56 328 0.0 0.0 0.00 0.24 0.24 93 1012.4
20200814115947 56 328 0.0 1.0 0.00 0.24 0.24 94 1012.4
20200814115454 56 280 0.0 1.0 0.01 0.24 0.24 94 1012.5
20200814114948 56 318 0.0 2.0 0.01 0.24 0.24 94 1011.8
20200814114451 56 317 0.0 2.0 0.02 0.24 0.24 94 1012.0
20200814114001 56 15 0.0 0.0 0.02 0.24 0.24 94 1011.7
20200814113444 56 20 0.0 0.0 0.05 0.24 0.24 94 1012.3
20200814112946 56 47 0.0 0.0 0.09 0.24 0.24 94 1012.8
20200814112442 56 46 0.0 0.0 0.09 0.24 0.24 94 1013.0
20200814111949 56 318 0.0 0.0 0.11 0.24 0.24 94 1013.2
20200814111443 56 318 0.0 1.0 0.13 0.24 0.24 94 1013.5
20200814110938 56 39 0.0 1.0 0.13 0.24 0.24 94 1013.5
20200814110440 56 67 0.0 2.0 0.14 0.24 0.24 94 1013.4
20200814105950 56 91 0.0 2.0 0.15 0.24 0.24 94 1013.9
20200814105452 56 81 0.0 0.0 0.15 0.24 0.24 94 1014.3
20200814104950 56 349 0.0 0.0 0.17 0.24 0.24 94 1014.7
20200814104441 56 46 0.0 0.0 0.17 0.23 0.23 94 1014.4
20200814103954 56 297 0.0 0.0 0.16 0.22 0.22 94 1014.9
20200814103442 56 297 0.0 0.0 0.14 0.20 0.20 94 1015.3
20200814102943 56 297 0.0 0.0 0.11 0.16 0.16 94 1014.9
20200814102454 56 297 0.0 0.0 0.11 0.14 0.15 94 1015.1
20200814101956 56 297 0.0 0.0 0.09 0.13 0.13 94 1015.0
20200814101445 56 297 0.0 0.0 0.08 0.12 0.12 94 1014.8
20200814100938 56 297 0.0 0.0 0.08 0.12 0.12 94 1014.8
20200814100440 56 297 0.0 0.0 0.07 0.10 0.10 94 1014.6
20200814095938 56 297 0.0 0.0 0.06 0.09 0.09 94 1014.6
20200814095440 56 297 0.0 0.0 0.06 0.08 0.09 93 1014.4
20200814094943 56 297 0.0 0.0 0.04 0.07 0.07 93 1014.4
20200814094448 56 297 0.0 0.0 0.03 0.06 0.06 93 1014.3
20200814093945 56 297 0.0 0.0 0.04 0.06 0.06 93 1013.9
20200814093446 56 297 0.0 0.0 0.03 0.06 0.06 93 1014.0
20200814092937 56 297 0.0 0.0 0.02 0.05 0.05 93 1013.9
20200814092438 56 297 0.0 0.0 0.02 0.04 0.04 93 1013.8
20200814091938 56 297 0.0 0.0 0.02 0.04 0.04 93 1013.4
20200814091439 56 297 0.0 0.0 0.02 0.04 0.04 93 1013.6
20200814090942 56 297 0.0 0.0 0.02 0.04 0.04 93 1013.7
20200814090445 57 297 0.0 0.0 0.02 0.03 0.03 93 1013.7
20200814085951 57 297 0.0 0.0 0.02 0.03 0.03 93 1013.8
20200814085440 57 297 0.0 0.0 0.02 0.03 0.03 92 1013.9
20200814084942 57 297 0.0 0.0 0.02 0.03 0.03 92 1013.9
20200814084441 57 297 0.0 0.0 0.02 0.02 0.03 93 1013.8
20200814083940 56 297 0.0 0.0 0.02 0.02 0.02 92 1014.0
20200814083438 56 297 0.0 0.0 0.02 0.02 0.02 92 1013.9
20200814082947 57 296 0.0 0.0 0.02 0.02 0.02 92 1014.1
20200814082413 57 296 0.0 0.0 0.02 0.02 0.02 92 1013.7
20200814081923 56 296 0.0 0.0 0.01 0.02 0.02 91 1013.9
20200814081351 56 296 0.0 0.0 0.01 0.02 0.02 91 1013.9
20200814080851 57 296 0.0 0.0 0.01 0.02 0.02 91 1014.0
20200814080338 57 296 0.0 0.0 0.00 0.01 0.01 90 1013.6
20200814075842 57 296 0.0 0.0 0.00 0.01 0.01 90 1013.5
20200814075344 58 296 0.0 0.0 0.00 0.01 0.01 89 1013.4
20200814074838 58 296 0.0 0.0 0.00 0.01 0.01 89 1013.3
20200814074339 58 296 0.0 0.0 0.00 0.01 0.01 89 1013.0
20200814073835 58 296 0.0 0.0 0.00 0.01 0.01 88 1013.0
20200814073337 58 296 0.0 0.0 0.00 0.01 0.01 88 1012.9
20200814072836 58 296 0.0 0.0 0.00 0.01 0.01 88 1012.7
20200814072338 58 296 0.0 0.0 0.00 0.01 0.01 88 1012.6
20200814071845 58 296 0.0 0.0 0.01 0.01 0.01 88 1012.6
20200814071334 59 296 0.0 0.0 0.01 0.01 0.01 88 1012.8
20200814070837 59 296 0.0 0.0 0.01 0.01 0.01 88 1012.9
20200814070338 59 296 0.0 0.0 0.01 0.01 0.01 88 1012.9
20200814065833 59 296 0.0 0.0 0.01 0.01 0.01 88 1013.1
20200814065335 59 296 0.0 0.0 0.01 0.01 0.01 88 1013.1
20200814064842 59 296 0.0 0.0 0.01 0.01 0.01 87 1013.2
20200814064346 59 296 0.0 0.0 0.01 0.01 0.01 86 1013.1
20200814063834 60 296 0.0 0.0 0.01 0.01 0.01 86 1013.0
20200814063336 60 296 0.0 0.0 0.01 0.01 0.01 85 1012.9
20200814062839 60 296 0.0 0.0 0.01 0.01 0.01 85 1012.8
20200814062333 60 296 0.0 0.0 0.01 0.01 0.01 85 1013.2
20200814061833 60 296 0.0 0.0 0.00 0.00 0.00 86 1013.3
20200814061348 60 296 0.0 0.0 0.00 0.00 0.00 87 1013.6
20200814060837 60 296 0.0 0.0 0.00 0.00 0.00 86 1013.8
20200814060337 60 296 0.0 0.0 0.00 0.00 0.00 87 1013.6
20200814055836 60 296 0.0 0.0 0.00 0.00 0.00 87 1013.8
20200814055334 61 296 0.0 0.0 0.00 0.00 0.00 87 1013.9
20200814054836 61 296 0.0 0.0 0.00 0.00 0.00 86 1013.7
20200814054336 61 296 0.0 0.0 0.00 0.00 0.00 85 1013.5
20200814053832 61 296 0.0 0.0 0.00 0.00 0.00 85 1013.4
20200814053332 61 296 0.0 0.0 0.00 0.00 0.00 85 1013.6
20200814052834 61 296 0.0 0.0 0.00 0.00 0.00 84 1013.6
20200814052332 61 296 0.0 0.0 0.00 0.00 0.00 82 1013.5
20200814051839 60 296 0.0 0.0 0.00 0.00 0.00 82 1013.4
20200814051335 60 296 0.0 0.0 0.00 0.00 0.00 84 1013.2
20200814050844 60 296 0.0 0.0 0.00 0.00 0.00 85 1013.4
20200814050341 60 296 0.0 0.0 0.00 0.00 0.00 85 1013.4
20200814045837 61 296 0.0 0.0 0.00 0.00 0.00 84 1013.6
20200814045336 60 296 0.0 0.0 0.00 0.00 0.00 82 1013.6
20200814044836 61 296 0.0 0.0 0.00 0.00 0.00 82 1013.7
20200814044320 61 296 0.0 0.0 0.00 0.00 0.00 82 1013.9
20200814043823 61 296 0.0 0.0 0.00 0.00 0.00 81 1013.8
20200814043311 62 296 0.0 0.0 0.00 0.00 0.00 80 1013.8
20200814042813 62 296 0.0 0.0 0.00 0.00 0.00 78 1013.7
20200814042313 62 296 0.0 0.0 0.00 0.00 0.00 79 1013.7
20200814041739 62 296 0.0 0.0 0.00 0.00 0.00 76 1013.6
20200814041234 62 296 0.0 0.0 0.00 0.00 0.00 77 1013.8
20200814040734 62 296 0.0 0.0 0.00 0.00 0.00 76 1013.7
20200814040239 63 296 0.0 0.0 0.00 0.00 0.00 76 1013.8
20200814035752 63 296 0.0 0.0 0.00 0.00 0.00 76 1013.8
20200814035241 63 296 0.0 0.0 0.00 0.00 0.00 77 1013.9
20200814034740 63 296 0.0 0.0 0.00 0.00 0.00 75 1013.9
20200814034237 63 296 0.0 0.0 0.00 0.00 0.00 76 1013.9
20200814033750 63 296 0.0 0.0 0.00 0.00 0.00 75 1014.0
20200814033237 63 297 0.0 0.0 0.00 0.00 0.00 76 1014.0
20200814032748 63 296 0.0 0.0 0.00 0.00 0.00 75 1014.0
20200814032237 63 296 0.0 0.0 0.00 0.00 0.00 75 1014.0
20200814031734 63 296 0.0 0.0 0.00 0.00 0.00 76 1014.2
20200814031239 62 296 0.0 0.0 0.00 0.00 0.00 75 1014.3
20200814030748 62 296 0.0 0.0 0.00 0.00 0.00 76 1014.3
20200814030237 62 293 0.0 0.0 0.00 0.00 0.00 78 1014.4
20200814025739 62 293 0.0 0.0 0.00 0.00 0.00 76 1014.4
20200814025233 62 320 0.0 0.0 0.00 0.00 0.00 77 1014.5
20200814024738 62 320 0.0 0.0 0.00 0.00 0.00 78 1014.5
20200814024245 62 320 0.0 0.0 0.00 0.00 0.00 80 1014.6
20200814023743 62 320 0.0 0.0 0.00 0.00 0.00 78 1014.5
20200814023241 62 320 0.0 0.0 0.00 0.00 0.00 77 1014.6
20200814022737 62 320 0.0 0.0 0.00 0.00 0.00 78 1014.8
20200814022237 62 320 0.0 0.0 0.00 0.00 0.00 78 1015.0
20200814021737 62 320 0.0 0.0 0.00 0.00 0.00 79 1015.2
20200814021236 62 320 0.0 0.0 0.00 0.00 0.00 78 1015.2
20200814020743 62 321 0.0 0.0 0.00 0.00 0.00 79 1015.4
20200814020234 62 294 0.0 0.0 0.00 0.00 0.00 78 1015.4
20200814015736 62 289 0.0 0.0 0.00 0.00 0.00 79 1015.5
20200814015238 61 289 0.0 0.0 0.00 0.00 0.00 77 1015.6
20200814014740 62 327 0.0 0.0 0.00 0.00 0.00 78 1015.7
20200814014243 61 334 0.0 0.0 0.00 0.00 0.00 77 1015.7
20200814013748 61 289 0.0 0.0 0.00 0.00 0.00 75 1015.7
20200814013241 61 72 0.0 0.0 0.00 0.00 0.00 78 1015.7
20200814012740 61 119 0.0 0.0 0.00 0.00 0.00 77 1015.9
20200814012236 60 119 0.0 0.0 0.00 0.00 0.00 75 1015.9
20200814011740 60 119 0.0 0.0 0.00 0.00 0.00 75 1016.1
20200814011237 60 119 0.0 0.0 0.00 0.00 0.00 76 1016.2
20200814010739 60 119 0.0 0.0 0.00 0.00 0.00 77 1016.3
20200814010240 60 119 0.0 0.0 0.00 0.00 0.00 75 1016.4
20200814005733 60 119 0.0 0.0 0.00 0.00 0.00 77 1016.5
20200814005243 60 119 0.0 0.0 0.00 0.00 0.00 77 1016.5
20200814004743 59 119 0.0 0.0 0.00 0.00 0.00 79 1016.6
20200814004234 59 119 0.0 0.0 0.00 0.00 0.00 80 1016.4
20200814003732 58 119 0.0 0.0 0.00 0.00 0.00 80 1016.5
20200813230733 53 119 0.0 0.0 0.00 0.00 0.00 95 1017.0
20200813230236 52 119 0.0 0.0 0.00 0.00 0.00 95 1016.9
20200813225739 51 119 0.0 0.0 0.00 0.00 0.00 95 1016.8
20200813225242 52 119 0.0 0.0 0.00 0.00 0.00 95 1016.7
20200813224737 52 119 0.0 0.0 0.00 0.00 0.00 96 1016.9
20200813224236 51 119 0.0 0.0 0.00 0.00 0.00 96 1017.2
20200813223743 51 119 0.0 0.0 0.00 0.00 0.00 96 1017.3
20200813223239 50 119 0.0 0.0 0.00 0.00 0.00 95 1017.1
20200813222738 50 119 0.0 0.0 0.00 0.00 0.00 95 1017.0
20200813222238 50 119 0.0 0.0 0.00 0.00 0.00 95 1017.0
20200813221739 49 119 0.0 0.0 0.00 0.00 0.00 95 1017.1
20200813221243 49 119 0.0 0.0 0.00 0.00 0.00 95 1017.4
20200813220741 49 119 0.0 0.0 0.00 0.00 0.00 95 1017.3
20200813220239 48 119 0.0 0.0 0.00 0.00 0.00 95 1017.4
20200813215742 48 119 0.0 0.0 0.00 0.00 0.00 95 1017.5
20200813215237 48 119 0.0 0.0 0.00 0.00 0.00 95 1017.5
20200813214739 49 119 0.0 0.0 0.00 0.00 0.00 95 1017.6
20200813214233 48 119 0.0 0.0 0.00 0.00 0.00 95 1017.4
20200813213733 48 119 0.0 0.0 0.00 0.00 0.00 95 1017.4
20200813213236 48 119 0.0 0.0 0.00 0.00 0.00 95 1017.4
20200813212734 48 119 0.0 0.0 0.00 0.00 0.00 95 1017.5
20200813212238 48 119 0.0 0.0 0.00 0.00 0.00 95 1017.3
20200813211742 47 119 0.0 0.0 0.00 0.00 0.00 95 1017.1
20200813211233 46 194 0.0 0.0 0.00 0.00 0.00 95 1017.0
20200813210738 45 194 0.0 0.0 0.00 0.00 0.00 95 1017.0
20200813210236 45 194 0.0 0.0 0.00 0.00 0.00 95 1017.0
20200813205738 45 194 0.0 0.0 0.00 0.00 0.00 95 1016.9
20200813205226 44 194 0.0 0.0 0.00 0.00 0.00 95 1016.8
20200813204722 44 194 0.0 0.0 0.00 0.00 0.00 95 1017.0
20200813204233 45 194 0.0 0.0 0.00 0.00 0.00 95 1017.0
20200813203723 45 194 0.0 0.0 0.00 0.00 0.00 95 1017.0
20200813203220 44 194 0.0 0.0 0.00 0.00 0.00 94 1016.7
20200813202720 44 194 0.0 0.0 0.00 0.00 0.00 94 1016.5
20200813202225 44 194 0.0 0.0 0.00 0.00 0.00 94 1016.3
20200813201722 47 194 0.0 0.0 0.00 0.00 0.00 95 1016.1
20200813201231 47 194 0.0 0.0 0.00 0.00 0.00 95 1016.0
20200813200738 46 194 0.0 0.0 0.00 0.00 0.00 95 1016.0
20200813200224 45 194 0.0 0.0 0.00 0.00 0.00 94 1016.0
20200813195725 45 194 0.0 0.0 0.00 0.00 0.00 94 1016.1
20200813195225 46 194 0.0 0.0 0.00 0.00 0.00 94 1016.2
20200813194725 47 194 0.0 0.0 0.00 0.00 0.00 94 1016.2
20200813194226 46 194 0.0 0.0 0.00 0.00 0.00 94 1016.2
20200813193728 47 194 0.0 0.0 0.00 0.00 0.00 94 1016.3
20200813193225 47 194 0.0 0.0 0.00 0.00 0.00 94 1016.5
20200813192725 47 194 0.0 0.0 0.00 0.00 0.00 94 1016.5